Weather History for Burbank, CA

Change the Weather History Date:

Sunday, March 16, 2014

  Actual Average Record
Temperature  
Mean Temperature 73 °F 58 °F  
Max Temperature 90 °F 70 °F 91 °F (2004)
Min Temperature 55 °F 46 °F 35 °F (1991)
Degree Days  
Heating Degree Days 0 7  
Month to date heating degree days 41 119  
Since 1 July heating degree days 518 1260  
Cooling Degree Days 8 0  
Month to date cooling degree days 18 0  
Year to date cooling degree days 78 6  
Growing Degree Days 22 (Base 50)    
Moisture  
Dew Point 25 °F    
Average Humidity 26    
Maximum Humidity 46    
Minimum Humidity 6    
Precipitation  
Precipitation 0.00 in 0.09 in 1.72 in (1986)
Month to date precipitation 0.79 1.91  
Year to date precipitation 4.85 9.92  
Since 1 July precipitation 5.28 14.68  
Sea Level Pressure  
Sea Level Pressure 30.13 in    
Wind  
Wind Speed 4 mph (West)    
Max Wind Speed 16 mph    
Max Gust Speed 22 mph    
Visibility 10 miles    
Events      
T = Trace of Precipitation, MM = Missing Value Source: NWS Daily Summary

Daily Weather History Graph

Daily Weather History Graph

Search for Another Location

Airport:

Trip Planner

Search our weather history database for the weather conditions in past years. The results will help you decide how hot, cold, wet, or windy it might be!

Date:

Astronomy

Mar. 16, 2014 Rise Set
Actual Time 7:02 AM PDT 7:02 PM PDT
Civil Twilight 6:37 AM PDT 7:27 PM PDT
Nautical Twilight 6:08 AM PDT 7:56 PM PDT
Astronomical Twilight 5:39 AM PDT 8:25 PM PDT
Moon 7:21 PM PDT (3/16) 6:49 AM PDT (3/16)
Length of Visible Light 12h 49m
Length of Day
11h 59m
Full, 100% of the Moon is Illuminated
Mar 16
Full
Mar 23
Last Quarter
Mar 30
New
Apr 7
First Quarter
Apr 15
Full

Hourly Weather History & Observations

Time (PDT) Temp. Dew Point Humidity Pressure Visibility Wind Dir Wind Speed Gust Speed Precip Events Conditions
12:53 AM 62.1 °F 39.0 °F 43% 30.17 in 10.0 mi Calm Calm - N/A   Clear
1:53 AM 60.1 °F 39.9 °F 47% 30.17 in 10.0 mi North 4.6 mph - N/A   Clear
2:53 AM 60.1 °F 33.1 °F 36% 30.17 in 10.0 mi Calm Calm - N/A   Clear
3:53 AM 57.9 °F 32.0 °F 37% 30.17 in 10.0 mi North 3.5 mph - N/A   Clear
4:53 AM 55.9 °F 32.0 °F 40% 30.17 in 10.0 mi North 3.5 mph - N/A   Clear
5:53 AM 57.0 °F 28.9 °F 34% 30.17 in 10.0 mi Calm Calm - N/A   Clear
6:53 AM 57.0 °F 28.0 °F 33% 30.18 in 10.0 mi Calm Calm - N/A   Clear
7:53 AM 60.1 °F 28.9 °F 31% 30.19 in 10.0 mi Calm Calm - N/A   Clear
8:53 AM 64.9 °F 30.0 °F 27% 30.21 in 10.0 mi SE 3.5 mph - N/A   Clear
9:53 AM 70.0 °F 30.0 °F 23% 30.22 in 10.0 mi Calm Calm - N/A   Clear
10:53 AM 78.1 °F 26.1 °F 15% 30.21 in 10.0 mi Calm Calm - N/A   Clear
11:53 AM 82.9 °F 23.0 °F 11% 30.19 in 10.0 mi Calm Calm - N/A   Clear
12:53 PM 86.0 °F 17.1 °F 8% 30.16 in 10.0 mi Calm Calm - N/A   Clear
1:53 PM 88.0 °F 14.0 °F 6% 30.13 in 10.0 mi WSW 5.8 mph - N/A   Clear
2:53 PM 88.0 °F 19.9 °F 8% 30.10 in 10.0 mi SSW 11.5 mph - N/A   Clear
3:53 PM 88.0 °F 15.1 °F 7% 30.09 in 10.0 mi SSW 16.1 mph 20.7 mph N/A   Clear
4:53 PM 86.0 °F 16.0 °F 7% 30.07 in 10.0 mi SSW 11.5 mph - N/A   Clear
5:53 PM 86.0 °F 17.1 °F 8% 30.06 in 10.0 mi Variable 5.8 mph - N/A   Clear
6:53 PM 82.0 °F 21.9 °F 11% 30.07 in 10.0 mi NW 5.8 mph - N/A   Clear
7:53 PM 79.0 °F 19.9 °F 11% 30.07 in 10.0 mi WNW 4.6 mph - N/A   Clear
8:53 PM 77.0 °F 21.9 °F 13% 30.07 in 10.0 mi West 4.6 mph - N/A   Clear
9:53 PM 71.1 °F 27.0 °F 19% 30.07 in 10.0 mi West 3.5 mph - N/A   Clear
10:53 PM 68.0 °F 25.0 °F 20% 30.07 in 10.0 mi NW 5.8 mph - N/A   Clear
11:53 PM 66.9 °F 25.0 °F 21% 30.05 in 10.0 mi WNW 6.9 mph - N/A   Clear